Regional Weather Roundup
Issued by NWS Spokane, WA

Home | Current Version | Previous Version | Text Only | Print | Product List | Glossary On
Versions: 1 2 3 4 5 6 7 8 9 10 11 12 13 14 15 16 17 18 19 20 21 22 23 24 25 26 27 28 29 30 31 32 33 34 35 36 37 38 39 40 41 42 43 44 45 46 47 48 49 50
000
NZUS01 KOTX 191010
RWROTX

Eastern Washington/Northern Idaho Roundup
National Weather Service, Spokane WA
300 AM PDT SAT AUG 19 2017

Note: "fair" indicated few or no clouds below 12,000 feet with no
significant weather and/or obstructions to visibility.

...Northeast Washington and Northern Idaho Panhandle...

CITY           SKY/WX    TMP DP  RH WIND       PRES   REMARKS
Spokane Intl   FAIR      59  46  62 SW10      29.97R
Spokane Downto FAIR      63  46  54 SW13      29.96R
Coeur d Alene  FAIR      63  45  51 VRB5      29.97R
Deer Park      FAIR      51  41  68 CALM      29.95R
Sandpoint      FAIR      61  43  51 S5        29.91S
Bonners Ferry  FAIR      66  41  39 SW7       29.89S

...Southeast Washington and southern Idaho Panhandle...

CITY           SKY/WX    TMP DP  RH WIND       PRES   REMARKS
Walla Walla    FAIR      66  49  54 SE9       30.03F
Pullman/Moscow FAIR      60  45  57 W7        30.05R
Lewiston       FAIR      70  48  45 NW8       29.99R
Lowell           N/A     58  46  64 CALM      30.01R
Grangeville    FAIR      59  36  41 E9        30.04S

...Columbia Basin...

CITY           SKY/WX    TMP DP  RH WIND       PRES   REMARKS
Ephrata        FAIR      68  39  34 NW8G17    29.98S
Moses Lake     FAIR      63  48  58 SW5       29.99S
Pasco          FAIR      66  51  58 SW5       30.01R
Richland       FAIR      65  52  62 SW3       30.01S
Hermiston      FAIR      66  54  65 SW10      30.01S
Pendleton      FAIR      65  50  58 W14       30.04S

...East Slopes Cascades...

CITY           SKY/WX    TMP DP  RH WIND       PRES   REMARKS
The Dalles     FAIR      68  55  63 W15G24    30.04S
Yakima         FAIR      70  50  49 NW14      30.03S
Ellensburg     FAIR      64  50  60 NW15G25   30.03R
Stampede Pass  CLOUDY    51  49  92 VRB6      30.17R
Wenatchee      FAIR      66  45  46 W12       30.00S
Omak           FAIR      64  40  41 N10       29.98R
Sunnyside        N/A     52  49  91 N5        30.03R

...Southern British Columbia...

CITY           SKY/WX    TMP DP  RH WIND       PRES   REMARKS
Penticton      MOCLDY    68  46  45 N9        30.01R
Cranbrook      PTCLDY    63  37  39 S6        29.88R
Osoyoos          N/A     66  48  52 N5          N/A
Creston          N/A     64  41  42 E3          N/A

...Western Montana...

CITY           SKY/WX    TMP DP  RH WIND       PRES   REMARKS
Kalispell      FAIR      54  39  57 SW6       29.94S
Libby            N/A     59  37  44 CALM      29.90S
Missoula       FAIR      60  35  39 CALM      30.00R

...Neighboring Cities...

CITY           SKY/WX    TMP DP  RH WIND       PRES   REMARKS
Seattle        MOCLDY    62  51  67 NE9       30.16R
Portland       FAIR      62  55  77 NW7       30.17R
Boise          FAIR      66  36  32 CALM      29.99R
Great Falls    CLOUDY    70  28  21 SW14      29.91R
Calgary        MOCLDY    52  43  71 NW9       29.97R



USA.gov is the U.S. government's official web portal to all federal, state and local government web resources and services.